GFSNW_prec_cthk_180.txt.gz
RH
81 78 75 74 73 73 77 85 88 87 90 95 89 80 78 66 67 66 65 63 62 61 59 57 52 48 43 42 47 52 50 57 59 48 43 44 51 57 57 64 65 61 70 57
80 79 76 73 70 68 78 80 80 82 83 88 86 78 73 69 67 67 68 66 68 66 72 77 66 55 48 55 61 63 65 67 69 66 53 42 47 58 69 66 70 90 89 79
67 63 60 58 54 56 65 78 81 82 82 80 81 77 70 68 69 70 74 74 73 75 76 74 82 84 71 67 73 72 71 71 72 79 67 65 69 71 69 72 83 90 73 61
51 48 49 47 46 50 54 68 66 64 71 74 74 75 73 69 67 74 76 89 86 86 89 86 83 84 86 79 75 77 80 83 72 64 65 67 65 65 67 71 71 92 71 74
42 42 42 42 42 45 50 58 59 66 62 65 66 71 79 84 82 79 78 91 92 98 98 98 98 90 95 90 74 82 81 80 82 70 70 70 70 61 64 63 63 62 64 65
41 39 36 35 37 36 51 51 55 67 57 57 63 64 71 73 82 89 90 90 93 87 95 97 96 96 86 89 86 92 92 98 90 73 76 77 82 52 54 52 51 54 53 46
33 31 30 29 33 35 43 51 66 79 71 70 67 60 61 73 78 84 92 92 97 93 94 93 86 87 84 81 74 78 81 86 93 93 84 94 52 56 58 57 50 57 61 60
34 31 28 29 28 28 35 45 57 72 74 71 57 62 63 51 53 68 79 81 87 95 92 96 93 81 85 65 66 66 73 79 87 90 86 69 52 60 60 71 60 70 61 61
28 27 27 26 31 35 35 44 56 65 81 53 76 76 76 79 75 69 69 76 83 88 96 98 96 93 80 76 69 66 67 68 85 86 83 78 49 62 61 60 62 65 60 63
25 26 28 28 30 33 38 47 51 63 73 42 61 68 82 80 89 91 83 85 80 87 98 94 91 77 75 77 67 65 84 90 92 87 91 67 57 59 63 71 65 53 53 55
28 27 27 26 28 35 37 39 50 60 77 50 61 64 84 91 95 88 83 87 87 91 95 90 88 82 81 71 62 73 70 89 85 82 85 79 70 77 83 76 72 52 54 65
35 34 30 31 28 29 32 45 59 71 85 58 74 65 64 70 79 86 89 90 88 97 96 98 93 90 94 96 86 79 75 72 74 72 72 70 65 55 62 61 72 61 56 61
38 39 42 39 35 37 41 57 74 85 88 74 71 69 72 63 62 72 79 65 69 81 94 93 95 92 84 91 83 74 80 82 93 64 49 47 46 53 57 59 58 61 60 62
41 44 55 66 62 51 53 70 77 89 94 92 55 74 67 64 61 56 60 60 63 66 71 78 81 89 82 91 96 95 95 86 71 57 50 46 43 47 54 55 62 61 65 74
58 57 68 72 68 62 67 72 74 78 98 97 73 69 61 64 57 67 72 78 67 74 82 84 85 76 83 81 82 73 65 66 57 56 54 52 56 48 57 64 70 76 76 74
77 75 79 66 66 71 76 67 70 86 89 86 72 54 60 56 63 57 62 66 73 78 91 82 83 85 88 90 95 66 57 52 48 46 47 46 41 42 48 54 55 60 62 58
79 74 72 66 68 73 65 67 94 94 96 93 77 56 83 69 61 65 83 89 98 98 93 88 89 85 94 92 88 75 60 46 39 35 36 37 40 41 45 46 54 58 48 45
77 72 73 78 71 56 55 67 72 70 88 94 80 65 66 82 94 92 87 87 93 91 92 90 85 89 90 89 74 57 45 49 49 50 56 57 54 52 52 53 57 56 54 57
70 75 73 63 50 62 70 71 74 82 84 83 78 70 79 89 92 95 98 98 98 95 89 86 95 97 82 59 50 47 52 57 60 63 71 73 67 59 58 55 57 55 55 56
57 52 50 57 57 66 86 87 80 77 71 65 59 65 77 86 93 97 98 98 99 96 90 85 80 60 45 43 48 54 63 65 76 84 86 81 64 61 64 58 57 58 58 57
59 58 72 96 82 80 87 80 74 69 69 69 63 68 74 75 85 94 95 86 81 78 77 71 67 53 56 69 71 57 60 83 88 94 90 74 64 62 62 63 64 68 70 74
90 94 96 94 90 93 90 90 88 89 91 85 86 86 87 86 90 99 88 85 75 67 68 74 62 64 78 85 70 72 95 97 91 90 88 89 89 90 90 87 79 77 74 78
91 95 91 88 89 96 94 91 88 94 87 98 97 97 94 96 95 90 88 73 65 55 67 66 88 83 89 88 83 87 94 92 89 88 84 82 75 72 68 69 70 72 84 84
98 97 96 97 97 96 96 97 98 98 94 87 89 97 98 91 89 84 75 62 59 65 63 75 93 84 85 87 88 87 91 89 87 79 77 78 86 92 87 85 84 80 76 74
97 98 97 98 97 93 94 87 88 88 86 85 83 78 80 77 71 67 63 65 64 60 67 97 92 83 86 85 86 84 84 85 85 82 73 74 76 79 90 96 92 88 88 82
96 95 91 85 83 85 84 81 80 83 78 75 83 91 82 75 70 73 71 64 62 85 99 95 88 87 92 89 85 78 70 71 75 80 80 76 73 73 78 82 89 89 85 85
84 80 76 75 74 74 76 75 72 73 77 80 88 90 82 81 91 89 82 92 98 93 89 83 90 90 95 95 87 81 77 75 78 77 75 77 75 70 66 67 69 70 71 68

GFSNW_prec_cthk_183.txt.gz
RH
97 96 94 88 86 84 83 86 90 90 93 97 95 92 84 80 76 78 78 76 76 72 69 69 66 60 55 45 49 54 47 63 66 56 44 41 46 44 49 78 91 95 98 86
89 86 83 83 81 81 85 87 87 88 92 95 93 86 78 78 77 78 76 77 76 72 73 82 68 64 56 63 62 66 64 68 75 66 59 52 54 48 60 73 86 96 98 80
75 70 66 65 63 63 70 77 79 77 81 80 80 82 75 73 67 67 71 67 74 81 81 77 86 76 62 62 65 71 83 79 78 87 75 68 68 61 61 70 94 85 85 84
63 58 55 55 54 53 52 56 63 64 70 72 71 72 70 72 71 68 68 70 81 85 92 94 96 90 88 74 64 68 82 97 93 84 78 72 69 62 56 60 68 89 84 89
53 52 52 48 45 44 45 53 53 56 59 57 62 64 65 63 57 65 58 76 82 92 98 94 92 95 86 96 84 87 86 92 91 89 72 80 78 56 59 63 63 68 71 70
45 44 41 41 42 40 43 44 47 54 50 50 56 53 54 51 58 63 75 87 93 96 96 96 98 95 86 88 96 94 93 91 90 93 94 88 87 51 65 63 58 57 61 51
43 40 36 34 36 36 41 50 53 58 56 59 56 53 54 58 57 63 54 63 76 73 82 89 87 82 73 82 80 88 86 83 91 90 91 92 57 67 63 63 52 60 56 52
36 33 31 30 28 28 30 34 42 51 52 48 43 58 65 58 56 61 64 63 83 87 86 88 96 83 79 69 70 71 67 77 87 91 80 71 58 60 62 68 56 67 69 64
28 29 27 24 24 26 27 27 38 51 55 35 47 53 53 65 70 75 78 80 77 77 93 96 95 84 79 76 76 58 82 87 92 90 93 81 65 62 64 64 61 54 57 61
19 24 23 22 23 25 29 31 41 50 49 24 45 49 54 61 73 85 79 76 72 77 84 86 93 92 82 80 78 74 78 88 96 96 95 77 66 65 60 70 74 75 74 72
22 27 30 32 32 27 27 28 36 47 45 35 48 46 55 57 67 78 82 94 91 90 98 96 97 97 86 76 77 76 73 84 94 95 98 95 81 79 79 73 85 87 81 63
35 35 33 36 36 33 35 36 37 48 56 48 53 53 59 62 60 64 72 84 86 82 97 95 97 86 83 88 86 77 83 89 92 92 87 78 79 72 61 51 53 67 72 70
48 49 45 51 41 40 39 41 48 60 71 55 51 51 58 63 70 74 65 60 69 74 80 94 94 91 93 87 87 94 87 90 95 80 74 82 72 60 51 46 49 53 60 66
63 63 63 59 53 45 46 56 62 78 85 78 44 55 53 58 60 60 60 55 64 68 71 72 78 76 71 85 85 80 79 92 94 97 89 73 54 46 44 42 42 43 47 56
77 88 73 58 54 60 72 66 66 75 86 71 53 52 42 48 52 53 54 55 61 69 75 75 77 76 88 81 82 86 84 88 98 91 67 53 45 41 36 38 40 43 49 56
78 88 71 58 73 78 73 70 72 67 80 85 75 61 50 54 51 52 48 50 68 83 90 85 82 77 92 95 87 74 72 65 66 54 44 39 37 37 36 35 36 36 40 51
90 92 74 87 86 69 64 65 71 81 87 86 83 71 60 69 70 60 60 66 72 79 80 79 85 92 93 89 83 67 70 56 56 53 50 43 40 41 43 43 43 40 44 52
96 86 91 88 68 64 59 51 47 56 69 78 84 71 66 79 86 95 84 79 89 96 97 94 91 91 89 82 71 74 60 53 50 44 44 49 48 53 64 63 55 45 46 53
84 81 64 61 59 53 47 47 54 63 75 75 71 67 71 82 88 91 97 97 97 92 91 90 91 88 86 80 84 70 55 56 55 48 49 62 76 76 80 68 55 49 51 52
42 54 61 57 53 51 56 60 70 73 71 70 64 62 65 65 73 84 98 99 97 98 96 98 97 85 71 74 70 76 77 67 60 61 80 89 86 78 71 64 64 60 58 56
70 71 64 74 84 77 85 88 82 82 81 78 74 76 79 78 87 92 88 98 92 95 93 91 88 88 93 92 87 82 81 77 89 96 92 93 93 82 78 76 65 61 60 62
83 92 95 98 97 95 97 93 91 93 92 90 95 92 92 91 92 98 97 92 82 75 79 81 79 85 89 93 89 84 83 84 84 91 88 88 85 82 86 88 86 83 75 75
91 93 96 89 89 97 98 96 94 96 96 96 99 98 97 94 94 97 90 76 67 59 69 71 92 92 84 83 81 82 81 83 89 88 80 82 88 87 82 73 72 69 69 81
90 94 94 97 97 97 97 93 90 93 98 96 92 98 97 92 93 86 80 64 66 65 64 82 97 94 82 79 79 77 76 79 82 85 83 75 78 84 92 93 91 86 82 74
92 93 92 95 94 95 98 95 93 95 90 87 93 89 84 84 77 72 65 66 66 64 86 96 90 83 82 80 80 78 74 71 72 72 77 76 77 78 80 85 90 96 91 90
88 89 89 86 82 82 79 80 84 82 84 84 83 93 90 83 74 78 74 74 80 96 97 95 84 78 77 83 83 83 80 78 75 77 76 73 74 77 76 74 82 85 86 89
71 69 65 62 62 62 64 66 71 74 71 79 82 92 91 90 95 97 93 98 98 98 94 92 83 79 79 86 87 86 86 84 84 82 82 80 75 73 75 74 68 64 66 67

GFSNW_prec_cthk_186.txt.gz
RH
98 98 97 97 96 95 92 91 94 96 96 97 97 96 92 90 88 88 87 83 83 81 79 76 72 64 62 54 62 62 58 83 79 60 46 49 56 52 52 68 69 79 89 81
97 97 95 92 91 88 88 93 93 96 97 96 97 97 94 91 91 88 81 81 82 83 76 90 74 68 59 67 66 78 78 84 93 73 59 52 56 52 53 71 88 89 94 88
94 89 83 82 78 76 80 84 88 86 92 94 92 86 79 76 69 66 66 69 73 74 74 73 79 75 65 64 72 72 81 87 96 94 79 73 68 58 60 74 97 96 93 82
77 73 71 66 62 63 70 71 75 78 81 78 76 78 76 71 69 65 70 71 76 84 87 87 85 80 74 60 61 74 84 92 87 83 83 84 85 82 70 74 75 92 87 81
67 64 62 62 58 54 56 59 57 59 60 56 59 61 60 55 51 54 59 63 65 68 77 83 89 92 93 85 61 69 80 92 84 93 86 90 92 69 69 72 65 64 64 51
59 55 51 48 46 45 45 48 50 49 48 48 50 49 48 54 61 56 57 64 61 62 63 71 73 85 83 88 95 75 72 82 95 95 90 94 84 65 86 75 63 65 65 51
49 47 44 42 43 40 43 45 45 49 52 54 53 48 53 55 53 61 51 56 66 61 59 70 78 84 81 80 76 80 73 85 98 96 89 88 45 52 65 67 59 64 66 64
44 43 39 35 34 36 38 47 43 41 45 41 37 40 40 39 41 48 55 53 64 68 64 81 84 67 62 66 63 69 85 92 97 96 79 61 55 56 66 63 59 62 64 69
33 30 29 30 28 26 27 30 34 33 41 35 34 36 33 36 39 35 41 50 67 77 81 85 89 81 68 57 65 72 88 98 98 92 92 81 63 62 64 63 72 70 62 65
29 27 31 28 25 26 30 30 31 34 38 31 29 30 39 42 48 49 42 46 54 83 90 93 95 88 96 94 92 80 78 85 92 97 97 85 78 74 70 72 69 72 73 78
33 31 30 31 29 29 28 28 36 40 43 33 30 32 44 52 58 61 52 57 60 82 92 92 98 92 88 84 79 74 78 91 95 89 89 95 79 83 84 79 76 71 55 66
32 32 34 35 40 38 37 36 39 41 44 35 35 38 48 56 60 67 65 64 63 73 83 87 87 97 83 83 90 68 86 96 88 93 95 91 88 89 85 74 57 45 44 48
37 40 38 48 50 47 46 43 45 46 44 39 42 45 56 58 62 74 80 65 71 67 83 90 90 86 76 79 65 71 80 80 95 93 92 88 83 90 88 73 45 40 43 44
52 52 58 64 70 65 49 46 48 56 64 63 47 48 45 58 65 68 62 58 68 75 80 79 80 82 65 70 72 81 86 88 94 98 94 92 88 80 67 58 45 40 40 43
59 64 74 78 71 83 62 61 63 73 72 64 43 37 46 57 57 56 53 56 63 72 80 81 76 73 71 64 79 86 90 96 98 98 88 86 74 63 51 45 42 41 40 39
69 73 87 92 91 91 83 81 77 75 75 78 66 50 46 47 57 67 66 56 57 64 71 73 72 76 81 83 86 80 82 84 87 81 68 64 57 49 44 41 40 40 41 39
72 75 98 95 85 89 90 75 76 82 78 64 58 52 46 50 63 73 67 59 62 59 64 70 80 75 81 83 89 69 80 85 76 68 63 52 49 45 43 52 58 61 56 52
76 90 87 84 93 96 75 61 56 54 53 64 70 63 58 58 75 89 85 87 75 79 83 79 79 82 92 92 77 81 94 87 69 68 65 61 54 49 55 67 80 74 74 65
91 89 87 86 71 52 47 50 48 52 65 73 68 69 65 68 79 84 87 93 98 92 92 87 86 85 84 74 79 86 83 83 82 75 72 74 73 76 80 77 79 76 66 58
55 55 46 49 53 53 55 61 68 73 74 74 71 75 79 81 84 90 96 97 98 98 94 91 93 88 77 80 87 90 90 78 71 67 73 86 89 87 85 84 81 83 78 73
73 78 75 80 94 92 93 98 97 95 94 92 87 89 93 92 96 97 94 95 99 98 98 98 94 95 99 88 87 90 83 76 73 76 77 86 93 90 90 89 89 80 73 66
77 84 89 96 97 97 98 94 93 95 90 89 92 96 98 96 98 98 98 97 87 83 92 94 93 89 82 83 87 84 81 79 78 80 84 85 85 92 94 87 78 78 77 74
79 83 84 83 84 94 95 92 91 91 90 91 95 95 96 96 98 98 97 87 71 64 69 76 85 87 85 84 80 77 78 76 77 82 81 84 87 86 93 96 88 84 77 70
79 81 79 82 85 87 91 91 87 89 90 91 90 90 92 88 90 86 83 70 70 73 70 89 98 96 92 87 80 82 81 77 73 72 76 78 77 79 83 86 95 95 92 86
82 83 83 83 78 83 87 87 87 86 90 88 87 85 93 90 83 76 70 68 74 75 96 98 96 94 89 83 79 82 85 81 78 79 78 77 73 74 77 80 85 86 92 94
70 75 76 72 74 72 72 73 75 77 78 74 80 85 89 88 86 81 83 81 92 95 95 94 92 95 91 85 81 81 84 86 83 80 79 82 81 75 70 72 78 80 80 84
55 57 58 58 56 56 57 58 60 64 70 76 78 80 86 93 94 96 98 98 98 97 94 91 88 88 90 89 86 82 83 90 92 89 86 82 82 83 82 76 73 73 71 69

GFSNW_prec_cthk_189.txt.gz
RH
99 98 96 96 95 95 98 95 97 95 95 99 97 95 95 96 97 97 96 94 90 87 86 86 83 72 71 67 73 73 73 87 88 70 49 50 57 58 59 74 71 65 75 83
97 95 96 97 96 96 94 94 95 98 95 98 97 97 97 97 97 97 96 94 88 85 84 89 76 69 64 67 67 75 71 80 94 86 66 60 64 58 65 72 82 88 97 85
98 97 98 98 95 91 90 92 95 96 98 97 98 97 97 97 94 89 86 81 76 75 75 77 73 73 64 66 69 71 83 86 88 91 91 87 84 70 70 80 96 95 94 84
97 97 97 91 86 80 81 84 86 89 95 94 94 93 90 83 75 71 68 64 64 71 75 70 65 61 58 48 56 67 75 90 86 87 76 69 76 80 67 83 82 95 90 97
92 85 77 72 70 70 74 74 75 76 76 75 76 74 70 67 63 58 56 56 55 56 64 64 63 64 60 65 54 66 69 82 85 91 65 68 78 70 75 86 82 82 80 71
76 74 72 67 64 60 65 62 62 60 63 62 61 57 54 55 55 52 55 56 59 58 54 58 56 55 54 60 71 72 81 89 90 94 67 68 86 75 84 76 71 76 82 63
69 64 61 58 55 52 51 51 54 54 53 52 48 50 52 52 53 55 46 47 54 49 51 52 48 47 50 54 51 57 77 78 92 88 77 85 75 69 69 62 55 70 64 64
55 52 49 45 44 43 44 45 44 45 50 42 39 39 38 36 33 35 32 31 41 43 51 58 61 44 48 42 46 47 65 88 93 97 79 75 69 60 62 69 54 67 64 63
43 41 38 35 33 33 34 39 42 43 43 36 35 36 33 34 34 35 34 33 32 40 51 58 75 70 50 69 82 74 87 91 97 93 97 92 63 74 78 85 79 75 73 69
38 35 32 31 30 27 27 29 35 33 33 27 33 34 34 36 38 41 40 44 43 45 58 70 86 90 92 94 83 74 81 77 96 95 97 93 82 83 85 96 83 75 76 76
38 35 33 35 33 27 27 29 28 30 34 31 31 36 36 39 45 53 48 50 59 61 65 76 86 84 81 90 75 72 78 83 91 83 95 89 95 96 97 98 90 82 69 64
42 35 34 40 37 31 30 28 29 35 40 37 36 36 38 40 46 55 59 58 58 63 76 76 80 83 79 79 78 69 75 78 91 94 85 84 95 97 91 90 85 68 55 41
36 45 42 40 44 42 41 39 42 43 41 34 35 47 53 56 58 64 63 53 61 62 80 86 87 90 79 79 68 65 62 72 90 96 91 98 98 92 88 80 70 49 41 39
40 36 37 43 45 58 51 44 42 43 43 46 45 51 50 51 50 54 52 56 66 66 74 85 89 85 69 67 67 71 74 92 97 97 96 98 91 91 87 77 57 45 41 39
66 71 64 64 67 85 82 72 58 53 60 61 55 44 39 42 43 48 57 65 73 73 75 77 75 70 71 60 62 69 85 97 97 94 93 93 80 75 70 60 48 41 41 41
68 74 83 85 90 87 88 86 76 80 77 70 55 38 31 38 47 56 68 81 85 81 65 63 65 62 69 74 72 80 86 87 90 96 91 74 61 57 54 51 46 45 47 45
81 80 80 91 95 95 92 83 81 82 78 62 52 40 39 48 55 69 86 81 74 67 66 62 58 62 74 77 81 72 77 88 97 96 76 74 70 66 59 50 44 48 54 66
68 73 90 91 94 91 88 85 71 55 58 57 63 58 55 54 63 78 85 89 91 78 65 67 62 65 74 89 75 81 90 94 87 84 84 79 75 81 82 79 74 72 70 74
79 82 85 88 85 73 60 50 52 58 61 68 71 76 77 75 88 95 95 95 97 88 82 78 81 90 90 78 80 80 84 88 89 76 74 72 82 90 89 90 82 75 78 80
61 62 65 62 57 55 58 60 68 79 86 90 91 93 95 91 93 97 98 98 98 98 93 89 88 84 80 86 93 97 95 91 79 72 71 79 84 90 94 90 89 89 82 81
64 69 72 77 89 95 94 95 96 95 94 94 94 96 94 98 98 98 98 97 97 98 98 98 98 97 98 97 90 92 90 85 82 82 81 82 87 90 89 91 87 83 87 87
78 83 83 86 88 89 91 89 91 92 90 91 95 94 96 97 98 98 95 96 89 89 96 98 98 96 90 82 80 82 80 78 76 76 77 77 79 86 87 93 96 93 86 79
80 82 82 80 76 85 85 86 85 88 89 90 92 92 92 93 94 94 91 90 78 76 80 80 83 85 91 86 83 81 75 74 76 75 71 73 76 77 80 84 87 98 96 91
78 80 80 80 79 79 80 84 82 80 83 87 90 90 90 89 88 86 82 72 68 74 72 86 89 88 89 87 84 79 72 70 74 76 75 76 77 75 75 78 82 86 90 94
70 77 80 77 72 74 75 77 79 78 79 80 79 79 84 90 91 88 77 73 78 81 88 92 89 89 87 85 85 84 78 75 73 77 80 80 80 79 79 74 74 84 88 89
62 60 68 68 68 66 64 63 63 67 69 72 78 81 80 79 85 86 84 80 90 95 95 91 91 90 88 87 87 85 84 81 80 78 78 85 89 85 81 82 80 76 74 81
64 59 55 56 56 58 58 57 59 58 58 62 67 74 77 85 90 92 97 98 98 98 97 96 93 89 90 89 87 84 81 82 82 79 78 82 91 94 91 86 86 85 81 78

GFSNW_prec_cthk_195.txt.gz
RH
98 99 97 98 98 98 99 99 99 98 99 98 97 96 91 88 92 91 93 96 97 95 93 90 88 87 92 89 87 92 91 89 74 59 60 58 56 67 81 92 88 91 96 84
97 99 99 99 99 99 99 98 99 98 98 98 98 97 94 93 94 95 97 98 97 96 96 94 91 90 89 87 84 82 80 84 80 49 39 57 65 62 61 63 64 73 88 62
98 97 98 98 98 98 98 98 98 98 97 97 97 97 96 96 95 96 97 97 95 94 92 93 91 86 80 76 71 63 68 71 70 68 49 44 43 39 39 47 61 57 60 54
98 99 98 98 98 99 98 98 98 97 96 96 97 97 96 95 97 96 94 91 87 89 91 87 83 75 69 62 52 50 52 56 49 45 44 41 39 39 34 42 45 64 49 43
98 98 99 99 99 97 97 98 98 97 97 97 98 97 97 94 97 93 94 88 86 82 83 70 65 60 60 54 44 44 41 47 45 48 34 45 49 41 55 53 54 54 55 52
98 98 96 98 98 97 97 94 97 96 95 95 97 95 93 91 90 87 82 75 68 61 58 60 56 50 43 38 35 30 38 48 60 61 44 59 55 58 63 59 61 69 68 64
98 99 97 97 97 96 93 91 89 82 83 80 79 73 73 71 68 62 58 52 52 51 43 39 33 28 23 22 21 30 41 61 76 68 68 74 46 58 96 95 91 77 79 84
97 97 93 89 84 81 79 71 69 63 65 64 63 59 56 53 49 48 44 37 36 36 32 32 35 26 27 24 30 45 56 68 79 79 81 58 51 87 92 90 82 95 97 97
84 78 75 70 64 62 57 53 52 48 45 47 46 49 47 46 40 36 34 37 34 29 36 45 53 43 36 46 35 40 59 78 85 76 88 79 79 73 77 89 95 97 98 98
62 59 54 50 45 44 42 43 42 39 37 34 34 35 34 33 35 31 31 33 35 37 46 57 59 55 59 53 49 41 50 69 82 77 84 53 61 72 85 96 97 97 98 98
48 42 38 36 33 30 29 30 31 31 30 31 30 29 30 33 33 32 37 34 39 50 62 69 71 76 64 63 48 43 43 71 75 73 71 65 73 72 97 97 94 98 96 93
38 36 31 31 31 29 28 27 28 28 28 28 30 28 28 29 28 29 34 33 48 60 73 75 74 70 65 59 53 38 65 72 83 76 49 53 76 97 97 98 98 97 92 83
35 33 30 34 35 31 29 29 27 25 26 25 26 26 28 28 27 33 42 52 56 59 60 63 69 72 69 65 52 60 63 65 70 67 60 80 91 94 98 98 99 95 89 77
40 46 44 38 35 38 34 29 29 32 32 36 35 36 33 34 39 44 49 47 46 50 60 71 80 80 74 64 62 65 64 68 62 70 85 93 88 90 93 91 94 87 71 56
47 55 58 56 57 58 53 53 53 52 48 48 54 44 45 47 46 39 36 45 60 72 78 80 82 82 85 74 69 60 59 60 78 90 94 99 91 87 81 79 75 74 71 62
54 57 56 55 59 62 64 70 64 61 58 62 57 43 32 34 37 44 50 63 74 81 83 79 77 73 79 75 65 48 61 82 88 94 94 95 92 82 76 74 77 73 72 71
56 62 62 66 67 70 73 71 67 62 59 48 40 38 38 43 51 60 63 69 73 81 87 79 74 75 78 74 62 58 73 83 86 94 95 90 84 76 74 73 73 77 80 83
52 57 63 68 71 74 73 69 59 52 56 61 61 56 60 67 74 81 84 88 87 88 84 79 79 76 76 82 74 79 85 94 98 95 87 82 77 73 71 70 73 81 86 85
45 52 58 61 58 56 54 53 61 68 80 83 91 94 92 94 98 97 97 92 88 82 78 82 89 92 91 78 83 94 97 98 98 91 84 80 74 68 66 70 75 84 86 89
48 50 48 52 58 63 63 71 79 84 88 89 94 96 97 98 98 97 98 97 97 96 95 97 97 92 90 89 93 93 90 91 84 81 79 77 75 70 69 73 78 81 85 90
46 49 50 57 59 70 74 76 80 84 85 87 88 91 93 92 93 94 96 96 96 94 98 97 96 96 96 97 94 90 87 85 83 78 71 70 70 70 73 74 76 76 77 84
60 61 60 67 69 71 73 76 78 79 77 79 83 86 86 88 89 90 87 89 89 88 88 96 92 93 95 93 85 82 82 80 79 76 70 66 66 67 68 71 73 76 75 76
63 66 65 66 69 73 73 73 72 76 74 76 79 79 77 81 86 87 89 88 85 82 83 86 87 84 86 84 84 83 84 83 82 79 77 75 72 69 66 65 65 68 72 73
54 57 65 69 68 67 66 66 69 68 70 71 70 72 74 75 80 83 83 85 86 85 86 85 89 92 88 88 87 86 83 81 79 76 74 72 72 71 70 68 69 70 68 69
52 55 55 58 60 63 67 68 67 66 65 64 65 62 64 67 72 83 81 82 80 80 87 91 93 94 93 92 90 89 87 84 81 78 75 73 70 68 65 62 61 62 68 68
47 52 52 54 59 59 58 56 58 57 60 66 66 67 70 70 71 75 75 75 72 81 89 94 95 94 91 90 89 90 88 88 85 80 76 73 67 65 65 64 60 61 63 64
58 53 56 59 62 69 70 66 68 69 74 78 77 79 77 77 79 79 85 91 89 86 88 89 87 87 89 89 87 86 84 81 77 71 65 64 65 64 61 57 56 58 61 63